Regional Weather Roundup
Issued by NWS Newport/Morehead, NC

Current Version | Previous Version | Graphics & Text | Print | Product List | Glossary On
Versions: 1 2 3 4 5 6 7 8 9 10 11 12 13 14 15 16 17 18 19 20 21 22 23 24 25 26 27 28 29 30 31 32 33 34 35 36 37 38 39 40 41 42 43 44 45 46 47 48 49 50
183 ASUS42 KMHX 272225 RWRMHX WEATHER ROUNDUP FOR EASTERN NORTH CAROLINA NATIONAL WEATHER SERVICE NEWPORT/MOREHEAD CITY NC 600 PM EDT MON MAR 27 2017 NOTE: "FAIR" INDICATES FEW OR NO CLOUDS BELOW 12,000 FEET WITH NO SIGNIFICANT WEATHER AND/OR OBSTRUCTIONS TO VISIBILITY NCZ015>017-031-032-045>047-102-103-272300- NORTH COAST CITY SKY/WX TMP DP RH WIND PRES REMARKS EDENTON PTSUNNY 75 56 50 S9 30.01F ELIZABETH CITY SUNNY 75 54 47 S8 30.00F KITTY HAWK NOT AVBL MANTEO SUNNY 67 57 70 S13 30.03F $$ NCZ045>047-081-094-103-104-272300- CENTRAL COAST CITY SKY/WX TMP DP RH WIND PRES REMARKS FRISCO SUNNY 72 55 55 S9 30.05F $$ NCZ095-097-098-100-101-272300- SOUTHERN COAST CITY SKY/WX TMP DP RH WIND PRES REMARKS BEAUFORT SUNNY 71 57 61 S8 30.04F CEDAR ISLAND NOT AVBL JACKSONVILLE SUNNY 73 53 49 S13 30.03S PINEY ISLAND PTCLDY N/A N/A N/A S12 30.04S WILMINGTON SUNNY 74 55 51 S14 30.03F $$ NCZ011>013-027>030-043-044-078>080-089-090>093-098-272300- COASTAL PLAIN CITY SKY/WX TMP DP RH WIND PRES REMARKS AHOSKIE N/A 74 56 52 SW5 29.99F CLINTON SUNNY 78 58 51 S3 30.00F ELIZABETHTOWN MOSUNNY 77 56 47 S10 30.01S GOLDSBORO MOSUNNY 78 55 45 SW10 29.98F GREENVILLE SUNNY 77 54 44 SW9 30.01F HAVELOCK MOSUNNY 73 53 49 S14 30.04F KENANSVILLE CLOUDY 77 55 47 S3 30.00F KINSTON PTSUNNY 77 54 44 CALM 30.01F NEW BERN SUNNY 75 53 46 S13 30.03F RICHLANDS MOSUNNY 75 56 51 S12 30.02F ROCKY MOUNT SUNNY 77 57 50 S8 29.99F WASHINGTON CLOUDY 75 54 47 S6 30.01S WHITEVILLE MOSUNNY 75 55 48 S9 30.02R $$ AMZ130-135-150-152-154-156-158-170-250-252-270-ANZ085-086-088-633-658-670-272300- MARINE OBSERVATIONS STATION/POSITION TIME TEMP WIND PRES WAVE SWELL AIR SEA DIR/SP/G HT/PER HT/PER (UTC) (F) (DEG/KT/KT) (MB) (FT/S) (FT/S) CHESAPEAKE LIGHT NOT AVBL 64 E VA BEACH 2150 56 50 170/ 10/ 12 1016.7 3/ 9 3/ 9 DUCK 2200 70 49 180/ 14/ 17 1015.6 2 E DUCK 2200 56 N/A 3/ 8 2/17 OREGON INLET 2200 65 57 180/ 11/ 12 1017.2 13E OREGON INLT 2148 53 N/A 4/10 3/10 HATTERAS CG 2200 70 62 190/ 4/ 7 1017.3 DIAMOND BUOY 2150 72 76 200/ 10/ 14 1017.7 4/ 8 3/ 8 CAPE LOOKOUT 2200 66 170/ 8/ 8 1017.2 BEAUFORT LAB 2200 69 60 180/ 6/ 8 1016.5 30 SE NEW RVR IN 2208 68 170/ 4/ 6 1017.7 30 SE NEW RVR IN 2213 66 N/A 3/ 9 2/11 27 SE WRIGHTSVLE 2208 70 67 240/ 4/ 8 1016.8 5 SE WRIGHTSVLE 2208 65 62 160/ 4/ 8 1017.1 225 S CAPE HAT 2150 69 73 90/ 6/ 8 1018.8 6/ 9 5/ 9 41 SE CHARLESTON 2150 72 76 180/ 8/ 10 1017.1 4/10 3/10 $$

USA.gov is the U.S. government's official web portal to all federal, state and local government web resources and services.